Hourly Data Report for March 06, 2004

SHERBROOKE A
QUEBEC

45°26'00.000" N
71°41'00.000" W
241.40 m
7028124
71610
YSC

Download Data

Hourly Data (March 2004)
Hourly Data Report for March 6, 2004
TIME
LST
Temp Definition
°C
Dew Point Definition
°C
Rel Hum Definition
%
Precip. Amount Definition
mm

Wind Dir Definition
10's deg

Wind Spd Definition
km/h
Visibility Definition
km
Stn Press Definition
kPa
Hmdx Definition


Wind Chill Definition


Weather Definition


00:00 6.2 1.5 72   20 9 15.0 97.12      
01:00 6.0 1.4 72   17 4 15.0 97.06      
02:00 6.2 1.5 72   23 4 15.0 97.03      
03:00 6.4 1.5 71   21 6 15.0 96.99      
04:00 6.6 1.8 71   18 7 15.0 96.91      
05:00 5.3 1.2 75   25 6 15.0 96.88      
06:00 5.5 1.0 73     0 15.0 96.79      
07:00 4.1 0.3 76   9 4 4.0 96.70      
08:00 4.7 0.8 76   33 4 19.3 96.66     Cloudy
09:00 4.8 1.1 77   34 7 19.3 96.49     Rain
10:00 5.8 1.7 75   24 7 19.3 96.64     Drizzle
11:00 5.8 0.3 68   27 20 19.3 96.64     Cloudy
12:00 5.8 -1.4 60   27 26 24.1 96.58     Cloudy
13:00 4.7 -1.6 64   25 19 19.3 96.59     Rain
14:00 4.4 -2.1 63   25 13 24.1 96.64     Cloudy
15:00 3.4 -2.6 65   27 33 19.3 96.68     Rain
16:00 3.0 -3.4 63   27 35 24.1 96.73     Cloudy
17:00 2.3 -4.6 60   25 28 24.1 96.81     Cloudy
18:00 1.1 -5.2 63   28 48 15.0 96.88     Snow
19:00 -0.1 -6.5 62   27 35 15.0 97.08   -7 Snow
20:00 -2.1 -7.1 69   29 19 1.9 97.24   -8 Snow
21:00 -1.9 -9.1 58   29 30 15.0 97.33   -9 Snow
22:00 -2.9 -9.6 60   29 24 15.0 97.47   -10 Snow
23:00 -3.8 -10.7 59   30 20 15.0 97.55   -10 Snow

Notes on Data Quality.

Legend

  • E = Estimated
  • M = Missing
  • NA = Not Available*
  • [empty] = Indicates an unobserved value
Date modified: